Location: Namasale
(1.5000°N, 32.6167°E)
Time: 23:07:09
(UTC+00:00)

Transit 2A - Pass Details

Date: 25 April 2021
Orbit: 602 x 957 km, 66.7° (Epoch: 11 May)

Event Time Altitude Azimuth Distance (km) Brightness Sun altitude
Rises 03:05:51 0° 226° (SW) 3,361 - -9.8°
Reaches altitude 10° 03:09:01 10° 243° (WSW) 2,355 - -9.0°
Exits shadow 03:09:02 10° 243° (WSW) 2,349 7.9 -9.0°
Maximum altitude 03:12:49 20° 288° (WNW) 1,694 7.3 -8.1°
Drops below altitude 10° 03:16:24 10° 334° (NNW) 2,179 8.2 -7.2°
Sets 03:19:13 0° 352° (N) 3,031 9.2 -6.5°
